NOAA 16 DEB, 42394

Orbit data source: Space-Track

NOAA 16 DEB, 42394 is space debris in SSO originally from a launch on Thu, 21 Sep 2000 UTC launched from the Air Force Western Test Range (AFWTR). Debris objects in space refer to the collection of defunct objects orbiting the Earth. Examples of debris include non-operational satellites, rocket bodies, and fragments generated from explosions, collisions, or faulty payload assembly.

Loading next visibility...
Identifier
42394, 2000-055SN
Orbit
SSO
Country
Flag of USUS
Related business
Manufacturer
Unknown
Mission
Spacecraft
Bus & Motor
Unknown
Mass
Unknown
Launch date (UTC)
2000-09-21 (25 years ago)
Launch vehicle
Unknown
Launch site
Air Force Western Test Range (AFWTR)
Object type
Payload
Rocket body
Debris
Shape & HBR
Unknown shape, 0.1 m
Radar Cross Section
Small (<0.1 m²)

Expand to show TLE details & history
Last TLE update: 2 days ago

TLE from 2 days ago
0 NOAA 16 DEB
1 42394U 00055SN  25287.01432310  .00011663  00000-0  27837-2 0  9996
2 42394  98.9820 124.5886 0035283 112.8236 247.6691 14.53464750499778
Epoch: 2025-10-14T00:20Z
TLE epoch observation values (Epoch: 2025-10-14T00:20:37.515Z)
Latitude
-0.00002°
Longitude
96.62346°
Altitude
726.892 km
Speed
7.487 km/s
True Right ascension
08h 18m 21s
True Declination
0° 00' 00"
Sunlit
Object was in daylight at epoch
Visualization orbit readout
Latitude
Unknown
Longitude
Unknown
Altitude
Unknown
Speed
Unknown
Apparent Right ascension
Unknown
Apparent Declination
Unknown
Sunlit
N/A
Visualization observer readout
Local Sidereal Time
14:03:45
Azimuth
Unknown
Elevation
Unknown
Doppler factor
Unknown
Orbital elements
Apogee altitude
736.496 km
Perigee altitude
686.468 km
Semi-major axis
7,089.619 km
Eccentricity
0.00353
Inclination
98.982°
RAAN
124.5886°
Arg. of periapsis
112.8236°
True anomaly
247.29574°
Mean anomaly
247.6691°
Eccentric anomaly
247.48236°
Mean motion
3.63587 °/min
Orbital period
99.01 mins
BSTAR
0.0027837
Loading maneuver chart data...
Computing Atmospheric mass density...

Documentation

Showing up to 5 results
|